Flag for U.S.A. Weather past 2 weeks in Bakersfield, California, U.S.A.

Now
87 °F

Clear.


Feels Like: 84 °F
Forecast: 72 / 99 °F
Wind: 5 mph from Northeast

Location: Meadows Field

Current Time: Sep 1, 2014 at 9:45:49 PM

Latest Report: Sep 1, 2014 at 8:54 PM


Visibility: 10 mi

Pressure: 29.72 "Hg

Humidity: 21%

Dew point: 43 °F

Location of BakersfieldLocation

Historic Weather in Bakersfield — Graph

°F

Bakersfield temperature yesterday

Maximum temperature yesterday: 97 °F (at 3:54 PM)
Minimum temperature yesterday: 72 °F (at 5:54 AM)
Average temperature yesterday: 84 °F

Past Weeks' High & Low Weather Summary

 TemperatureHumidityPressure
High103 °F (Aug 28, 2:54 PM)51% (Aug 25, 6:54 AM)30.03 "Hg (Aug 25, 6:54 AM)
Low66 °F (Aug 26, 4:54 AM)9% (Aug 18, 3:54 PM)29.68 "Hg (Aug 18, 6:54 PM)
Average83 °F27%29.83 "Hg
* Reported Aug 17 8:54 PM — Sep 1 8:54 PM, Bakersfield, Weather by CustomWeather, © 2014

Note: Actual official high and low records may vary slightly from our data, if they occured in-between our weather recording intervals... More about our weather records

Advertising

Bakersfield weather history for previous 24 hours

 ConditionsComfort  
Time TempWeatherWind HumidityBarometerVisibility
8:54 PM
Sep 1
87 °FClear.5 mph21%29.72 "Hg10 mi
7:54 PM89 °FSunny.5 mph22%29.71 "Hg10 mi
6:54 PM94 °FSunny.9 mph19%29.70 "Hg10 mi
5:54 PM97 °FSunny.9 mph16%29.70 "Hg10 mi
4:54 PM99 °FSunny.5 mph14%29.70 "Hg10 mi
3:54 PM97 °FSunny.9 mph16%29.71 "Hg10 mi
2:54 PM97 °FSunny.8 mph16%29.73 "Hg10 mi
1:54 PM94 °FSunny.8 mph18%29.75 "Hg10 mi
12:54 PM92 °FSunny.6 mph21%29.77 "Hg10 mi
11:54 AM91 °FSunny.3 mph22%29.79 "Hg10 mi
10:54 AM88 °FSunny.6 mph22%29.80 "Hg10 mi
9:54 AM84 °FSunny.6 mph25%29.81 "Hg10 mi
8:54 AM81 °FSunny.6 mph24%29.81 "Hg10 mi
7:54 AM77 °FSunny.3 mph26%29.81 "Hg10 mi
6:54 AM74 °FClear.5 mph26%29.81 "Hg10 mi
5:54 AM72 °FClear.5 mph29%29.80 "Hg10 mi
4:54 AM73 °FClear.6 mph29%29.79 "Hg10 mi
3:54 AM73 °FClear.No wind28%29.79 "Hg10 mi
2:54 AM75 °FClear.3 mph28%29.79 "Hg10 mi
1:54 AM73 °FClear.6 mph26%29.79 "Hg10 mi
12:54 AM78 °FClear.No wind24%29.79 "Hg10 mi
11:54 PM
Aug 31
76 °FClear.5 mph24%29.79 "Hg10 mi
10:54 PM80 °FClear.No wind19%29.78 "Hg10 mi
9:54 PM83 °FClear.5 mph17%29.77 "Hg10 mi
Weather by CustomWeather, © 2014

See weather overviewHow to use our weather pages